Heinz Schepers — V2OM7 — position and weather

sailwx.info

Track history (hours):
 
Tides and Currents Weather Stations Pressure Air Temp Water Temp Dewpoint Dewpoint Depression Visibility Wind Speed Wind Dir Waves Ship Positions

Heinz Schepers

Last reported at 2014-Jul-23 22:12 UTC. Time now 2014-Jul-24 03:56 UTC.
Position N 37°49' E 026°49'.

Length 101 m; draft 5.3 m.

Type: Cargo ship. MMSI: 304596000.

Date/timePositionNaut miles runAvg speedWind from/ knotsBaromVisibWave heightAir tempDewpointWater temp
2014-Jul-23 22:12N 37°49' E 026°49'14414.4
2014-Jul-23 12:13N 36°09' E 028°58'19314.1
2014-Jul-22 22:33N 34°39' E 032°27'1413.8
2014-Jul-22 21:33N 34°35' E 032°43'1312.9
2014-Jul-22 20:33N 34°32' E 032°58'8 7.9
2014-Jul-22 19:34N 34°39' E 033°01'0 0.2
2014-Jul-22 18:33N 34°39' E 033°01'0 0.0
2014-Jul-22 17:31N 34°39' E 033°01'0 0.0
2014-Jul-22 16:31N 34°39' E 033°01'0 0.0
2014-Jul-22 15:31N 34°39' E 033°01'0 0.0
2014-Jul-22 14:34N 34°39' E 033°01'0 0.0
2014-Jul-22 13:33N 34°39' E 033°01'0 0.0
2014-Jul-22 12:33N 34°39' E 033°01'0 0.0
2014-Jul-22 11:33N 34°39' E 033°01'0 0.0
2014-Jul-22 10:33N 34°39' E 033°01'0 0.0
2014-Jul-22 09:33N 34°39' E 033°01'0 0.0
2014-Jul-22 08:33N 34°39' E 033°01'0 0.4
2014-Jul-22 07:33N 34°39' E 033°01'8 7.6
2014-Jul-22 06:33N 34°32' E 032°59'1313.5
2014-Jul-22 05:33N 34°35' E 032°43'1313.1
2014-Jul-22 04:34N 34°38' E 032°28'31712.6
2014-Jul-21 03:24N 37°19' E 026°51'6613.2
2014-Jul-20 22:22N 38°02' E 025°47'1413.3
2014-Jul-20 21:18N 38°09' E 025°32'1213.6
2014-Jul-20 20:24N 38°16' E 025°19'  
2014-Jul-15 20:33N 34°41' E 032°22'1313.1
2014-Jul-15 19:33N 34°36' E 032°37'1312.9
2014-Jul-15 18:33N 34°33' E 032°52'1010.1
2014-Jul-15 17:34N 34°35' E 033°04'4 4.0
2014-Jul-15 16:31N 34°39' E 033°01'0 0.0
2014-Jul-15 15:31N 34°39' E 033°01'0 0.0
2014-Jul-15 14:31N 34°39' E 033°01'0 0.0
2014-Jul-15 13:31N 34°39' E 033°01'0 0.0
2014-Jul-15 12:31N 34°39' E 033°01'0 0.0
2014-Jul-15 11:31N 34°39' E 033°01'0 0.0
2014-Jul-15 10:31N 34°39' E 033°01'0 0.0
2014-Jul-15 09:31N 34°39' E 033°01'0 0.0
2014-Jul-15 08:31N 34°39' E 033°01'0 0.0
2014-Jul-15 07:31N 34°39' E 033°01'0 0.0
2014-Jul-15 06:31N 34°39' E 033°01'0 0.0
2014-Jul-15 05:31N 34°39' E 033°01'0 0.5
2014-Jul-15 04:33N 34°39' E 033°02'7 7.0
2014-Jul-15 03:33N 34°32' E 033°01'1313.4
2014-Jul-15 02:34N 34°34' E 032°45'1413.5
2014-Jul-15 01:34N 34°38' E 032°29'29913.0
2014-Jul-14 02:33N 37°01' E 027°06'1413.8
2014-Jul-14 01:32N 37°12' E 026°56'1713.9
2014-Jul-14 00:19N 37°27' E 026°45'1013.7
2014-Jul-13 23:33N 37°35' E 026°37'1413.5
2014-Jul-13 22:31N 37°45' E 026°25'  
Track history (hours):
 
Tides and Currents Weather Stations Pressure Air Temp Water Temp Dewpoint Dewpoint Depression Visibility Wind Speed Wind Dir Waves Ship Positions

Heinz Schepers

Last reported at 2014-Jul-23 22:12 UTC. Time now 2014-Jul-24 03:56 UTC.
Position N 37°49' E 026°49'.

Length 101 m; draft 5.3 m.

Type: Cargo ship. MMSI: 304596000.

Date/timePositionNaut miles runAvg speedWind from/ knotsBaromVisibWave heightAir tempDewpointWater temp
2014-Jul-23 22:12N 37°49' E 026°49'14414.4
2014-Jul-23 12:13N 36°09' E 028°58'19314.1
2014-Jul-22 22:33N 34°39' E 032°27'1413.8
2014-Jul-22 21:33N 34°35' E 032°43'1312.9
2014-Jul-22 20:33N 34°32' E 032°58'8 7.9
2014-Jul-22 19:34N 34°39' E 033°01'0 0.2
2014-Jul-22 18:33N 34°39' E 033°01'0 0.0
2014-Jul-22 17:31N 34°39' E 033°01'0 0.0
2014-Jul-22 16:31N 34°39' E 033°01'0 0.0
2014-Jul-22 15:31N 34°39' E 033°01'0 0.0
2014-Jul-22 14:34N 34°39' E 033°01'0 0.0
2014-Jul-22 13:33N 34°39' E 033°01'0 0.0
2014-Jul-22 12:33N 34°39' E 033°01'0 0.0
2014-Jul-22 11:33N 34°39' E 033°01'0 0.0
2014-Jul-22 10:33N 34°39' E 033°01'0 0.0
2014-Jul-22 09:33N 34°39' E 033°01'0 0.0
2014-Jul-22 08:33N 34°39' E 033°01'0 0.4
2014-Jul-22 07:33N 34°39' E 033°01'8 7.6
2014-Jul-22 06:33N 34°32' E 032°59'1313.5
2014-Jul-22 05:33N 34°35' E 032°43'1313.1
2014-Jul-22 04:34N 34°38' E 032°28'31712.6
2014-Jul-21 03:24N 37°19' E 026°51'6613.2
2014-Jul-20 22:22N 38°02' E 025°47'1413.3
2014-Jul-20 21:18N 38°09' E 025°32'1213.6
2014-Jul-20 20:24N 38°16' E 025°19'  
2014-Jul-15 20:33N 34°41' E 032°22'1313.1
2014-Jul-15 19:33N 34°36' E 032°37'1312.9
2014-Jul-15 18:33N 34°33' E 032°52'1010.1
2014-Jul-15 17:34N 34°35' E 033°04'4 4.0
2014-Jul-15 16:31N 34°39' E 033°01'0 0.0
2014-Jul-15 15:31N 34°39' E 033°01'0 0.0
2014-Jul-15 14:31N 34°39' E 033°01'0 0.0
2014-Jul-15 13:31N 34°39' E 033°01'0 0.0
2014-Jul-15 12:31N 34°39' E 033°01'0 0.0
2014-Jul-15 11:31N 34°39' E 033°01'0 0.0
2014-Jul-15 10:31N 34°39' E 033°01'0 0.0
2014-Jul-15 09:31N 34°39' E 033°01'0 0.0
2014-Jul-15 08:31N 34°39' E 033°01'0 0.0
2014-Jul-15 07:31N 34°39' E 033°01'0 0.0
2014-Jul-15 06:31N 34°39' E 033°01'0 0.0
2014-Jul-15 05:31N 34°39' E 033°01'0 0.5
2014-Jul-15 04:33N 34°39' E 033°02'7 7.0
2014-Jul-15 03:33N 34°32' E 033°01'1313.4
2014-Jul-15 02:34N 34°34' E 032°45'1413.5
2014-Jul-15 01:34N 34°38' E 032°29'29913.0
2014-Jul-14 02:33N 37°01' E 027°06'1413.8
2014-Jul-14 01:32N 37°12' E 026°56'1713.9
2014-Jul-14 00:19N 37°27' E 026°45'1013.7
2014-Jul-13 23:33N 37°35' E 026°37'1413.5
2014-Jul-13 22:31N 37°45' E 026°25'  

Dump ship's entire track history